• In Deutschland
  • Länderverzeichnis
  • Für 7 Tage
  • Wassertemperatur
  • Satellitenkarten
  • Wetterkarte
  • Widgets
  • user-avatar
    Anmelden

    Stündliche Wetter Lyubestovo

    Heute, 21 Oktober, Sonntag

    Zeit Temperatur Niederschläge Wind Luftdruck Luftfeuchtigkeit
    00:00 +4°C° 0 mm 2 m/S 749 mmHg 85%
    01:00 +4°C° 0 mm 2 m/S 749 mmHg 87%
    02:00 +3°C° 0 mm 2 m/S 749 mmHg 88%
    03:00 +3°C° 0 mm 2 m/S 749 mmHg 89%
    04:00 +3°C° 0 mm 2 m/S 749 mmHg 91%
    05:00 +3°C° 0 mm 2 m/S 749 mmHg 92%
    06:00 +3°C° 0 mm 2 m/S 750 mmHg 90%
    07:00 +3°C° 0 mm 2 m/S 750 mmHg 88%
    08:00 +4°C° 0 mm 2 m/S 751 mmHg 85%
    09:00 +5°C° 0 mm 2 m/S 751 mmHg 79%
    10:00 +7°C° 0 mm 2 m/S 751 mmHg 73%
    11:00 +8°C° 0 mm 2 m/S 751 mmHg 67%
    12:00 +8°C° 0 mm 2 m/S 751 mmHg 65%
    13:00 +9°C° 0 mm 2 m/S 751 mmHg 62%
    14:00 +9°C° 0 mm 2 m/S 751 mmHg 60%
    15:00 +8°C° 0 mm 2 m/S 751 mmHg 66%
    16:00 +7°C° 0 mm 2 m/S 751 mmHg 71%
    17:00 +7°C° 0 mm 1 m/S 751 mmHg 77%
    18:00 +6°C° 0 mm 1 m/S 751 mmHg 79%
    19:00 +5°C° 0 mm 1 m/S 752 mmHg 82%
    20:00 +5°C° 0 mm 1 m/S 752 mmHg 84%
    21:00 +5°C° 0 mm 1 m/S 752 mmHg 86%
    22:00 +4°C° 0 mm 1 m/S 752 mmHg 87%
    23:00 +4°C° 0 mm 1 m/S 752 mmHg 89%

    Morgen, 22 Oktober, Montag

    Zeit Temperatur Niederschläge Wind Luftdruck Luftfeuchtigkeit
    00:00 +4°C° 0 mm 1 m/S 752 mmHg 90%
    01:00 +3°C° 0 mm 1 m/S 752 mmHg 90%
    02:00 +3°C° 0 mm 1 m/S 752 mmHg 91%
    03:00 +2°C° 0 mm 0 m/S 752 mmHg 91%
    04:00 +2°C° 0 mm 0 m/S 751 mmHg 91%
    05:00 +2°C° 0 mm 0 m/S 751 mmHg 92%
    06:00 +2°C° 0 mm 0 m/S 751 mmHg 90%
    07:00 +3°C° 0 mm 0 m/S 751 mmHg 88%
    08:00 +4°C° 0 mm 1 m/S 751 mmHg 86%
    09:00 +6°C° 0 mm 1 m/S 751 mmHg 79%
    10:00 +7°C° 0 mm 1 m/S 751 mmHg 72%
    11:00 +8°C° 0 mm 2 m/S 750 mmHg 65%
    12:00 +8°C° 0 mm 2 m/S 750 mmHg 63%
    13:00 +9°C° 0 mm 2 m/S 749 mmHg 60%
    14:00 +9°C° 0 mm 2 m/S 749 mmHg 58%
    15:00 +8°C° 0 mm 2 m/S 748 mmHg 64%
    16:00 +7°C° 0 mm 2 m/S 747 mmHg 69%
    17:00 +5°C° 0 mm 2 m/S 747 mmHg 75%
    18:00 +5°C° 0 mm 2 m/S 747 mmHg 77%
    19:00 +4°C° 0 mm 2 m/S 746 mmHg 79%
    20:00 +4°C° 0 mm 2 m/S 746 mmHg 80%
    21:00 +4°C° 0 mm 2 m/S 745 mmHg 81%
    22:00 +2°C° 0 mm 3 m/S 745 mmHg 82%
    23:00 +2°C° 0 mm 3 m/S 744 mmHg 83%

    übermorgen, 23 Oktober, Dienstag

    Zeit Temperatur Niederschläge Wind Luftdruck Luftfeuchtigkeit
    00:00 +2°C° 0 mm 3 m/S 744 mmHg 84%
    01:00 +2°C° 0 mm 3 m/S 743 mmHg 86%
    02:00 +2°C° 0 mm 3 m/S 743 mmHg 88%
    03:00 +2°C° 0 mm 3 m/S 742 mmHg 89%
    04:00 +1°C° 0 mm 3 m/S 741 mmHg 91%
    05:00 +1°C° 0 mm 3 m/S 741 mmHg 93%
    06:00 +2°C° 0.3 mm 3 m/S 741 mmHg 93%
    07:00 +3°C° 0.3 mm 2 m/S 740 mmHg 93%
    08:00 +4°C° 0.3 mm 2 m/S 740 mmHg 92%
    09:00 +4°C° 0.2 mm 2 m/S 740 mmHg 90%
    10:00 +5°C° 0.2 mm 2 m/S 739 mmHg 88%
    11:00 +6°C° 0.2 mm 2 m/S 739 mmHg 86%
    12:00 +6°C° 0 mm 2 m/S 739 mmHg 82%
    13:00 +6°C° 0 mm 2 m/S 738 mmHg 78%
    14:00 +7°C° 0 mm 2 m/S 738 mmHg 75%
    15:00 +6°C° 0 mm 2 m/S 737 mmHg 77%
    16:00 +5°C° 0 mm 2 m/S 736 mmHg 79%
    17:00 +5°C° 0 mm 2 m/S 736 mmHg 81%
    18:00 +4°C° 0 mm 2 m/S 735 mmHg 82%
    19:00 +4°C° 0 mm 2 m/S 735 mmHg 82%
    20:00 +4°C° 0 mm 2 m/S 734 mmHg 83%
    21:00 +2°C° 0 mm 3 m/S 733 mmHg 83%
    22:00 +2°C° 0 mm 3 m/S 733 mmHg 83%
    23:00 +1°C° 0 mm 3 m/S 732 mmHg 83%

    24 Oktober, Mittwoch

    Zeit Temperatur Niederschläge Wind Luftdruck Luftfeuchtigkeit
    00:00 0°C° 0 mm 4 m/S 731 mmHg 83%
    01:00 +1°C° 0 mm 4 m/S 730 mmHg 83%
    02:00 +1°C° 0 mm 5 m/S 728 mmHg 83%
    03:00 +1°C° 0.1 mm 5 m/S 727 mmHg 84%
    04:00 +1°C° 0.1 mm 6 m/S 726 mmHg 84%
    05:00 +2°C° 0.1 mm 6 m/S 725 mmHg 84%
    06:00 +2°C° 0.4 mm 6 m/S 724 mmHg 84%
    07:00 +2°C° 0.4 mm 6 m/S 724 mmHg 84%
    08:00 +2°C° 0.4 mm 6 m/S 723 mmHg 84%
    09:00 +3°C° 0.4 mm 6 m/S 722 mmHg 84%
    10:00 +3°C° 0.4 mm 6 m/S 722 mmHg 84%
    11:00 +3°C° 0.4 mm 6 m/S 721 mmHg 84%
    12:00 +5°C° 0.9 mm 5 m/S 721 mmHg 85%
    13:00 +5°C° 0.9 mm 5 m/S 721 mmHg 87%
    14:00 +5°C° 0.9 mm 5 m/S 721 mmHg 88%
    15:00 +5°C° 0.3 mm 4 m/S 721 mmHg 89%
    16:00 +5°C° 0.3 mm 4 m/S 720 mmHg 91%
    17:00 +5°C° 0.3 mm 3 m/S 720 mmHg 92%
    18:00 +5°C° 0.2 mm 3 m/S 721 mmHg 93%
    19:00 +4°C° 0.2 mm 3 m/S 721 mmHg 93%
    20:00 +4°C° 0.2 mm 3 m/S 721 mmHg 94%
    21:00 +4°C° 0.1 mm 3 m/S 721 mmHg 94%
    22:00 +4°C° 0.1 mm 3 m/S 721 mmHg 94%
    23:00 +4°C° 0.1 mm 3 m/S 721 mmHg 94%

    25 Oktober, Donnerstag

    Zeit Temperatur Niederschläge Wind Luftdruck Luftfeuchtigkeit
    00:00 +4°C° 0.1 mm 3 m/S 721 mmHg 93%
    01:00 +4°C° 0.1 mm 3 m/S 721 mmHg 93%
    02:00 +5°C° 0.1 mm 2 m/S 722 mmHg 93%
    03:00 +5°C° 0.1 mm 2 m/S 722 mmHg 93%
    04:00 +5°C° 0.1 mm 2 m/S 722 mmHg 93%
    05:00 +5°C° 0.1 mm 2 m/S 722 mmHg 94%
    06:00 +4°C° 0.1 mm 3 m/S 722 mmHg 93%
    07:00 +4°C° 0.1 mm 3 m/S 722 mmHg 92%
    08:00 +4°C° 0.1 mm 3 m/S 722 mmHg 90%
    09:00 +4°C° 0.1 mm 4 m/S 722 mmHg 87%
    10:00 +3°C° 0.1 mm 5 m/S 723 mmHg 85%
    11:00 +3°C° 0.1 mm 5 m/S 723 mmHg 82%
    12:00 +3°C° 0.1 mm 6 m/S 723 mmHg 80%
    13:00 +3°C° 0.1 mm 6 m/S 723 mmHg 79%
    14:00 +3°C° 0.1 mm 6 m/S 723 mmHg 77%
    15:00 +3°C° 0.1 mm 6 m/S 723 mmHg 78%
    16:00 +3°C° 0.1 mm 6 m/S 724 mmHg 79%
    17:00 +2°C° 0.1 mm 6 m/S 724 mmHg 80%
    18:00 +2°C° 0.2 mm 6 m/S 724 mmHg 79%
    19:00 +2°C° 0.2 mm 6 m/S 724 mmHg 78%
    20:00 +2°C° 0.2 mm 6 m/S 725 mmHg 78%
    21:00 +1°C° 0 mm 6 m/S 725 mmHg 79%
    22:00 +1°C° 0 mm 6 m/S 725 mmHg 80%
    23:00 +1°C° 0 mm 6 m/S 726 mmHg 81%

    26 Oktober, Freitag

    Zeit Temperatur Niederschläge Wind Luftdruck Luftfeuchtigkeit
    00:00 +1°C° 0 mm 6 m/S 726 mmHg 81%
    01:00 +1°C° 0 mm 6 m/S 727 mmHg 82%
    02:00 +1°C° 0 mm 6 m/S 727 mmHg 82%
    03:00 -1°C° 0 mm 6 m/S 728 mmHg 82%
    04:00 -1°C° 0 mm 6 m/S 728 mmHg 82%
    05:00 -1°C° 0 mm 6 m/S 729 mmHg 82%
    06:00 -1°C° 0 mm 6 m/S 729 mmHg 82%
    07:00 0°C° 0 mm 5 m/S 730 mmHg 82%
    08:00 0°C° 0 mm 5 m/S 731 mmHg 82%
    09:00 +1°C° 0 mm 5 m/S 731 mmHg 80%
    10:00 +1°C° 0 mm 5 m/S 732 mmHg 77%
    11:00 +2°C° 0 mm 5 m/S 733 mmHg 75%
    12:00 +2°C° 0 mm 5 m/S 733 mmHg 74%
    13:00 +3°C° 0 mm 5 m/S 734 mmHg 74%
    14:00 +3°C° 0 mm 5 m/S 734 mmHg 74%
    15:00 +4°C° 0.1 mm 4 m/S 734 mmHg 77%
    16:00 +3°C° 0.1 mm 4 m/S 735 mmHg 81%
    17:00 +3°C° 0.1 mm 3 m/S 736 mmHg 84%
    18:00 +2°C° 0 mm 3 m/S 736 mmHg 85%
    19:00 +2°C° 0 mm 3 m/S 737 mmHg 87%
    20:00 +1°C° 0 mm 3 m/S 737 mmHg 89%
    21:00 +1°C° 0 mm 3 m/S 738 mmHg 90%
    22:00 +1°C° 0 mm 3 m/S 738 mmHg 92%
    23:00 0°C° 0 mm 3 m/S 738 mmHg 94%
    Mehr zeigen